User: anonymous   Login
Location: Unspecified
(0.0000°N, 0.0000°E)
Time: 12:43:52
(UTC+00:00)
Language:

USA 283 - Orbit

View from above orbital plane
View from above orbital plane
View from above satellite
View from above satellite

Ground track
Ground track

The orbit data is extracted from the following two-line orbital elements,

1 43339U 18036A   21020.57861627 -.00000310  00000-0  00000+0 0  9991
2 43339   0.0061 243.6155 0000616  78.4045 140.5204  1.00271404  5525
Epoch (UTC): 20 January 2021 13:53:12
Eccentricity: 0.0000616
inclination: 0.0061°
perigee height: 35784 km
apogee height: 35789 km
right ascension of ascending node: 243.6155°
argument of perigee: 78.4045°
revolutions per day: 1.00271404
mean anomaly at epoch: 140.5204°
orbit number at epoch: 552

The dashed part of the orbit path shows where the satellite is in the earth's shadow,  

DLR